Погода в Кайруане

Тунис     35°40′18″N   10°05′39″E
темп.,
°C
ветер,
м/с
пор.,
м/с
влажн.,
%
обл.,
%
осадки,
мм/ч
давл.,
гПа
погр.,
м
7 августа, вс
вс701:00+28с34520 0.0 1014152
04:00+26ссз22550 0.0 101333
07:00+28ссз12470 0.0 1014179
10:00+33с24270 0.0 10141462
13:00+37ссв77180 0.0 10123440
16:00+38св881820 0.0 10103613
19:00+34в66310 0.0 1011747
22:00+31св36390 0.0 1013319
8 августа, пн
пн801:00+28с24440 0.0 101389
04:00+27сз11460 0.0 101318
07:00+28ссз22420 0.0 1014156
10:00+33с33280 0.0 10141210
13:00+38св66210 0.0 10123238
16:00+34всв9833100 0.2 10121130
19:00+32св34370 0.3 1014520
22:00+30св34550 0.0 1016200
9 августа, вт
вт901:00+28св22640 0.0 101559
04:00+26с22560 0.0 101419
07:00+28юз01460 0.0 101598
10:00+33ссв24270 0.0 10151280
13:00+37св57180 0.0 10143131
16:00+37всв97212 0.0 10122045
19:00+32всв66370 0.0 1014862
22:00+29всв33550 0.0 1016514
10 августа, ср
ср1001:00+28ссв22620 0.0 1015149
04:00+26св22690 0.0 101466
07:00+27ссв11670 0.0 1015258
10:00+31с12350 0.0 10151248
13:00+36всв35190 0.0 10142866
16:00+38св67150 0.0 10123146
19:00+30всв77480 0.0 1013780
22:00+29в44540 0.0 1015874
11 августа, чт
чт1101:00+27св33610 0.0 1015271
04:00+26с11670 0.0 101438
07:00+26ссв24650 0.0 1015315
10:00+31св23370 0.0 10151310
13:00+36св24220 0.0 10133099
16:00+36всв97262 0.0 10112348
19:00+30св77490 0.0 1012754
22:00+28всв33580 0.0 1014830